Weather History for Stephenville, TX

Change the Weather History Date:

Tuesday, May 6, 2014

  Actual Average Record
Temperature  
Mean Temperature 74 °F -  
Max Temperature 88 °F 79 °F 98 °F (1984)
Min Temperature 60 °F 56 °F 44 °F (1991)
Cooling Degree Days 8    
Growing Degree Days 24 (Base 50)    
Moisture  
Dew Point 59 °F    
Average Humidity 54    
Maximum Humidity 82    
Minimum Humidity 36    
Precipitation  
Precipitation 0.00 in - - ()
Sea Level Pressure  
Sea Level Pressure 29.77 in    
Wind  
Wind Speed 13 mph (SSE)    
Max Wind Speed 21 mph    
Max Gust Speed 32 mph    
Visibility 10 miles    
Events      
Averages and records for this station are not official NWS values.
T = Trace of Precipitation, MM = Missing Value Source: NWS Daily Summary

Daily Weather History Graph

Daily Weather History Graph

Search for Another Location

Airport:

Trip Planner

Search our weather history database for the weather conditions in past years. The results will help you decide how hot, cold, wet, or windy it might be!

Date:

Astronomy

May. 06, 2014 Rise Set
Actual Time 6:41 AM CDT 8:17 PM CDT
Civil Twilight 6:15 AM CDT 8:43 PM CDT
Nautical Twilight 5:43 AM CDT 9:15 PM CDT
Astronomical Twilight 5:10 AM CDT 9:48 PM CDT
Moon 12:55 PM CDT (5/6) 1:40 AM CDT (5/6)
Length of Visible Light 14h 28m
Length of Day
13h 35m
Waxing Crescent, 46% of the Moon is Illuminated
May 6
Waxing Crescent
May 6
First Quarter
May 14
Full
May 21
Last Quarter
May 28
New

Hourly Weather History & Observations

Time (CDT) Temp. Heat Index Dew Point Humidity Pressure Visibility Wind Dir Wind Speed Gust Speed Precip Events Conditions
12:15 AM 75.2 °F - 55.4 °F 50% 29.82 in 10.0 mi South 10.4 mph 17.3 mph N/A   Clear
12:35 AM 74.3 °F - 55.9 °F 53% 29.82 in 10.0 mi South 12.7 mph 17.3 mph N/A   Clear
12:55 AM 73.9 °F - 56.3 °F 54% 29.82 in 10.0 mi South 12.7 mph - N/A   Clear
1:15 AM 73.6 °F - 56.7 °F 55% 29.82 in 10.0 mi South 13.8 mph 18.4 mph N/A   Clear
1:35 AM 72.5 °F - 56.8 °F 58% 29.81 in 10.0 mi South 13.8 mph 18.4 mph N/A   Clear
1:55 AM 72.0 °F - 56.8 °F 59% 29.80 in 10.0 mi South 15.0 mph - N/A   Clear
2:15 AM 71.1 °F - 56.8 °F 61% 29.80 in 10.0 mi South 11.5 mph 18.4 mph N/A   Clear
2:35 AM 69.8 °F - 57.2 °F 64% 29.78 in 10.0 mi South 11.5 mph 18.4 mph N/A   Clear
6:55 AM 60.8 °F - 54.9 °F 81% 29.81 in 10.0 mi SSE 4.6 mph - N/A   Clear
7:15 AM 61.0 °F - 55.4 °F 82% 29.82 in 10.0 mi SSE 5.8 mph - N/A   Clear
7:35 AM 61.7 °F - 55.6 °F 80% 29.82 in 10.0 mi South 9.2 mph - N/A   Clear
7:55 AM 62.6 °F - 55.9 °F 79% 29.82 in 10.0 mi South 8.1 mph - N/A   Clear
8:15 AM 64.0 °F - 56.5 °F 76% 29.83 in 10.0 mi South 10.4 mph - N/A   Clear
8:35 AM 66.2 °F - 57.2 °F 73% 29.83 in 10.0 mi SSE 9.2 mph - N/A   Clear
8:55 AM 66.4 °F - 57.2 °F 72% 29.83 in 10.0 mi South 11.5 mph 16.1 mph N/A   Clear
9:15 AM 67.5 °F - 57.4 °F 70% 29.82 in 10.0 mi South 12.7 mph - N/A   Clear
9:35 AM 69.1 °F - 57.7 °F 67% 29.82 in 10.0 mi South 15.0 mph - N/A   Clear
9:55 AM 70.7 °F - 58.3 °F 65% 29.83 in 10.0 mi South 10.4 mph - N/A   Clear
10:15 AM 72.5 °F - 58.3 °F 61% 29.83 in 10.0 mi South 10.4 mph 18.4 mph N/A   Clear
10:35 AM 73.8 °F - 58.6 °F 59% 29.83 in 10.0 mi SSE 13.8 mph - N/A   Clear
10:55 AM 75.2 °F - 58.6 °F 56% 29.83 in 10.0 mi South 13.8 mph 18.4 mph N/A   Clear
11:15 AM 77.4 °F - 59.0 °F 53% 29.83 in 10.0 mi South 12.7 mph 18.4 mph N/A   Clear
11:35 AM 79.0 °F - 59.0 °F 50% 29.83 in 10.0 mi South 13.8 mph 18.4 mph N/A   Clear
11:55 AM 80.4 °F 80.9 °F 58.6 °F 47% 29.82 in 10.0 mi South 13.8 mph 18.4 mph N/A   Clear
12:15 PM 81.1 °F 81.4 °F 58.6 °F 46% 29.81 in 10.0 mi SSE 15.0 mph 21.9 mph N/A   Clear
12:35 PM 82.4 °F 82.5 °F 59.0 °F 45% 29.78 in 10.0 mi SSE 16.1 mph 23.0 mph N/A   Clear
12:55 PM 83.1 °F 82.9 °F 58.6 °F 43% 29.78 in 10.0 mi South 17.3 mph 26.5 mph N/A   Clear
1:15 PM 84.7 °F 84.2 °F 58.5 °F 41% 29.77 in 10.0 mi SSE 17.3 mph 23.0 mph N/A   Clear
1:35 PM 85.6 °F 84.8 °F 57.9 °F 39% 29.76 in 10.0 mi SSE 15.0 mph 26.5 mph N/A   Clear
1:55 PM 86.2 °F 85.2 °F 57.9 °F 38% 29.75 in 10.0 mi SSE 20.7 mph 26.5 mph N/A   Clear
2:15 PM 87.6 °F 86.5 °F 57.9 °F 36% 29.75 in 10.0 mi SSE 16.1 mph 25.3 mph N/A   Clear
2:35 PM 86.7 °F 85.9 °F 58.1 °F 38% 29.74 in 10.0 mi South 16.1 mph 25.3 mph N/A   Clear
3:15 PM 86.4 °F 85.6 °F 58.8 °F 39% 29.73 in 10.0 mi South 18.4 mph 28.8 mph N/A   Clear
3:35 PM 86.5 °F 85.9 °F 59.2 °F 39% 29.72 in 10.0 mi South 18.4 mph 27.6 mph N/A   Clear
3:55 PM 87.8 °F 87.4 °F 60.1 °F 39% 29.72 in 10.0 mi SSE 18.4 mph 27.6 mph N/A   Clear
4:15 PM 86.7 °F 86.5 °F 60.3 °F 41% 29.71 in 10.0 mi South 17.3 mph 26.5 mph N/A   Clear
4:35 PM 86.4 °F 86.3 °F 60.6 °F 42% 29.71 in 10.0 mi South 19.6 mph 26.5 mph N/A   Clear
4:55 PM 84.4 °F 84.4 °F 60.4 °F 44% 29.71 in 7.0 mi SSE 19.6 mph 27.6 mph N/A   Clear
5:15 PM 85.6 °F 85.4 °F 60.3 °F 42% 29.71 in 7.0 mi SSE 18.4 mph 32.2 mph N/A   Clear
5:35 PM 85.3 °F 85.2 °F 60.3 °F 43% 29.71 in 10.0 mi SSE 19.6 mph 27.6 mph N/A   Clear
5:55 PM 83.7 °F 83.6 °F 59.5 °F 44% 29.71 in 10.0 mi SSE 19.6 mph 26.5 mph N/A   Clear
6:15 PM 84.6 °F 84.4 °F 59.7 °F 43% 29.71 in 10.0 mi SSE 17.3 mph 25.3 mph N/A   Clear
6:35 PM 83.8 °F 83.8 °F 59.9 °F 44% 29.71 in 10.0 mi SSE 15.0 mph 24.2 mph N/A   Clear
6:55 PM 83.7 °F 83.6 °F 59.7 °F 44% 29.70 in 10.0 mi SSE 18.4 mph 25.3 mph N/A   Clear
7:15 PM 82.9 °F 83.0 °F 59.4 °F 45% 29.70 in 10.0 mi SSE 15.0 mph 25.3 mph N/A   Clear
7:35 PM 81.9 °F 82.1 °F 59.4 °F 46% 29.71 in 10.0 mi South 19.6 mph 26.5 mph N/A   Clear
7:55 PM 80.8 °F 81.4 °F 59.9 °F 49% 29.71 in 10.0 mi SSE 13.8 mph 23.0 mph N/A   Clear
8:15 PM 79.9 °F - 60.6 °F 52% 29.72 in 10.0 mi SSE 18.4 mph 27.6 mph N/A   Clear
8:35 PM 79.0 °F - 61.0 °F 54% 29.73 in 10.0 mi SSE 15.0 mph 27.6 mph N/A   Clear
8:55 PM 77.9 °F - 61.0 °F 56% 29.73 in 10.0 mi SSE 18.4 mph 23.0 mph N/A   Clear
9:15 PM 77.2 °F - 61.0 °F 57% 29.74 in 10.0 mi SSE 13.8 mph 24.2 mph N/A   Clear
9:35 PM 76.6 °F - 60.8 °F 58% 29.74 in 10.0 mi SSE 13.8 mph 21.9 mph N/A   Clear
9:55 PM 76.3 °F - 60.8 °F 59% 29.75 in 10.0 mi South 13.8 mph 25.3 mph N/A   Clear
10:15 PM 75.7 °F - 60.8 °F 60% 29.76 in 10.0 mi SSE 13.8 mph 28.8 mph N/A   Clear
10:55 PM 74.3 °F - 61.3 °F 64% 29.77 in 10.0 mi SSE 19.6 mph 25.3 mph N/A   Clear
11:15 PM 73.9 °F - 61.2 °F 64% 29.77 in 10.0 mi SSE 13.8 mph 23.0 mph N/A   Clear
11:35 PM 73.8 °F - 61.3 °F 65% 29.78 in 10.0 mi South 18.4 mph 28.8 mph N/A   Clear
11:55 PM 73.0 °F - 61.3 °F 67% 29.77 in 10.0 mi South 13.8 mph 24.2 mph N/A   Clear